When you browse on this site, cookies collect data to enhance your experience and personalize the content and advertising you see.
Visit our Privacy Policy to learn more. By continuing to use the site, you agree to this use of cookies and data.
  • In Latvia
  • List of Countries
  • For 7 days
  • Water Temperature
  • Weather Map
  • Weather Widgets
  • user-avatar
    Login

    Hourly Weather Mendoza

    Today, 22 February, Saturday

    Time Temperature Precipitation Wind Pressure Humidity
    00:00 +18°C° 0 mm 2 mps 702 mmHg 44%
    01:00 +17°C° 0 mm 2 mps 702 mmHg 44%
    02:00 +17°C° 0 mm 2 mps 702 mmHg 45%
    03:00 +17°C° 0 mm 2 mps 702 mmHg 46%
    04:00 +16°C° 0 mm 2 mps 702 mmHg 47%
    05:00 +17°C° 0 mm 2 mps 702 mmHg 45%
    06:00 +18°C° 0 mm 2 mps 702 mmHg 42%
    07:00 +19°C° 0 mm 2 mps 702 mmHg 51%
    08:00 +20°C° 0 mm 2 mps 702 mmHg 47%
    09:00 +21°C° 0 mm 2 mps 702 mmHg 44%
    10:00 +23°C° 0 mm 2 mps 702 mmHg 41%
    11:00 +24°C° 0 mm 3 mps 701 mmHg 39%
    12:00 +25°C° 0 mm 3 mps 701 mmHg 36%
    13:00 +27°C° 0 mm 3 mps 700 mmHg 33%
    14:00 +27°C° 0 mm 3 mps 700 mmHg 32%
    15:00 +28°C° 0 mm 3 mps 700 mmHg 31%
    16:00 +28°C° 0 mm 3 mps 700 mmHg 31%
    17:00 +27°C° 0 mm 3 mps 700 mmHg 33%
    18:00 +26°C° 0 mm 4 mps 700 mmHg 35%
    19:00 +25°C° 0 mm 4 mps 700 mmHg 36%
    20:00 +23°C° 0 mm 4 mps 700 mmHg 39%
    21:00 +22°C° 0 mm 3 mps 700 mmHg 41%
    22:00 +21°C° 0 mm 3 mps 700 mmHg 43%
    23:00 +20°C° 0 mm 2 mps 699 mmHg 45%

    Tomorrow, 23 February, Sunday

    Time Temperature Precipitation Wind Pressure Humidity
    00:00 +20°C° 0 mm 2 mps 699 mmHg 47%
    01:00 +20°C° 0 mm 1 mps 698 mmHg 49%
    02:00 +20°C° 0 mm 1 mps 698 mmHg 50%
    03:00 +20°C° 0 mm 1 mps 698 mmHg 51%
    04:00 +19°C° 0 mm 1 mps 698 mmHg 52%
    05:00 +20°C° 0 mm 1 mps 698 mmHg 49%
    06:00 +20°C° 0 mm 2 mps 698 mmHg 46%
    07:00 +21°C° 0 mm 2 mps 698 mmHg 43%
    08:00 +24°C° 0 mm 2 mps 698 mmHg 40%
    09:00 +25°C° 0 mm 2 mps 698 mmHg 37%
    10:00 +27°C° 0 mm 2 mps 698 mmHg 34%
    11:00 +28°C° 0 mm 3 mps 698 mmHg 31%
    12:00 +29°C° 0 mm 3 mps 697 mmHg 29%
    13:00 +32°C° 0 mm 4 mps 697 mmHg 27%
    14:00 +32°C° 0 mm 4 mps 696 mmHg 26%
    15:00 +33°C° 0 mm 4 mps 696 mmHg 25%
    16:00 +33°C° 0 mm 4 mps 696 mmHg 24%
    17:00 +31°C° 0 mm 3 mps 696 mmHg 26%
    18:00 +29°C° 0 mm 3 mps 696 mmHg 28%
    19:00 +28°C° 0 mm 2 mps 696 mmHg 30%
    20:00 +27°C° 0 mm 3 mps 696 mmHg 35%
    21:00 +26°C° 0 mm 3 mps 696 mmHg 39%
    22:00 +25°C° 0 mm 3 mps 696 mmHg 43%
    23:00 +24°C° 0 mm 3 mps 696 mmHg 44%

    Day after tomorrow, 24 February, Monday

    Time Temperature Precipitation Wind Pressure Humidity
    00:00 +24°C° 0 mm 2 mps 695 mmHg 46%
    01:00 +23°C° 0 mm 2 mps 695 mmHg 47%
    02:00 +23°C° 0 mm 1 mps 694 mmHg 49%
    03:00 +22°C° 0 mm 1 mps 694 mmHg 50%
    04:00 +21°C° 0 mm 1 mps 694 mmHg 51%
    05:00 +22°C° 0 mm 1 mps 695 mmHg 48%
    06:00 +24°C° 0 mm 2 mps 695 mmHg 45%
    07:00 +25°C° 0 mm 2 mps 695 mmHg 41%
    08:00 +26°C° 0 mm 3 mps 695 mmHg 38%
    09:00 +28°C° 0 mm 3 mps 695 mmHg 35%
    10:00 +30°C° 0 mm 4 mps 695 mmHg 32%
    11:00 +32°C° 0 mm 4 mps 695 mmHg 30%
    12:00 +33°C° 0 mm 4 mps 694 mmHg 27%
    13:00 +34°C° 0 mm 3 mps 694 mmHg 25%
    14:00 +34°C° 0 mm 4 mps 694 mmHg 24%
    15:00 +34°C° 0 mm 4 mps 693 mmHg 23%
    16:00 +34°C° 0 mm 4 mps 693 mmHg 21%
    17:00 +33°C° 0 mm 3 mps 694 mmHg 24%
    18:00 +30°C° 0 mm 3 mps 694 mmHg 26%
    19:00 +29°C° 0 mm 2 mps 695 mmHg 28%
    20:00 +27°C° 0.1 mm 3 mps 695 mmHg 36%
    21:00 +25°C° 0.1 mm 4 mps 696 mmHg 44%
    22:00 +22°C° 0.1 mm 4 mps 696 mmHg 52%
    23:00 +22°C° 0 mm 4 mps 696 mmHg 52%

    25 February, Tuesday

    Time Temperature Precipitation Wind Pressure Humidity
    00:00 +22°C° 0 mm 3 mps 696 mmHg 52%
    01:00 +21°C° 0 mm 2 mps 696 mmHg 52%
    02:00 +21°C° 0 mm 2 mps 696 mmHg 52%
    03:00 +21°C° 0 mm 1 mps 696 mmHg 53%
    04:00 +21°C° 0 mm 1 mps 697 mmHg 54%
    05:00 +20°C° 0 mm 2 mps 697 mmHg 50%
    06:00 +21°C° 0 mm 3 mps 698 mmHg 47%
    07:00 +22°C° 0 mm 5 mps 699 mmHg 43%
    08:00 +22°C° 0 mm 5 mps 699 mmHg 39%
    09:00 +23°C° 0 mm 5 mps 699 mmHg 36%
    10:00 +25°C° 0 mm 5 mps 699 mmHg 32%
    11:00 +26°C° 0 mm 4 mps 699 mmHg 30%
    12:00 +26°C° 0 mm 4 mps 699 mmHg 29%
    13:00 +27°C° 0 mm 3 mps 699 mmHg 27%
    14:00 +28°C° 0 mm 3 mps 698 mmHg 27%
    15:00 +28°C° 0 mm 3 mps 698 mmHg 26%
    16:00 +28°C° 0 mm 3 mps 698 mmHg 25%
    17:00 +27°C° 0 mm 3 mps 699 mmHg 27%
    18:00 +26°C° 0 mm 3 mps 699 mmHg 29%
    19:00 +25°C° 0 mm 3 mps 700 mmHg 31%
    20:00 +24°C° 0 mm 2 mps 700 mmHg 33%
    21:00 +23°C° 0 mm 2 mps 700 mmHg 34%
    22:00 +23°C° 0 mm 2 mps 701 mmHg 36%
    23:00 +21°C° 0 mm 2 mps 701 mmHg 37%

    26 February, Wednesday

    Time Temperature Precipitation Wind Pressure Humidity
    00:00 +21°C° 0 mm 1 mps 700 mmHg 38%
    01:00 +20°C° 0 mm 1 mps 700 mmHg 40%
    02:00 +20°C° 0 mm 1 mps 700 mmHg 40%
    03:00 +18°C° 0 mm 2 mps 700 mmHg 41%
    04:00 +18°C° 0 mm 2 mps 699 mmHg 41%
    05:00 +19°C° 0 mm 2 mps 700 mmHg 38%
    06:00 +19°C° 0 mm 2 mps 700 mmHg 36%
    07:00 +20°C° 0 mm 2 mps 700 mmHg 34%
    08:00 +23°C° 0 mm 2 mps 700 mmHg 31%
    09:00 +24°C° 0 mm 3 mps 700 mmHg 29%
    10:00 +26°C° 0 mm 3 mps 700 mmHg 26%
    11:00 +27°C° 0 mm 3 mps 700 mmHg 25%
    12:00 +28°C° 0 mm 3 mps 699 mmHg 24%
    13:00 +29°C° 0 mm 3 mps 699 mmHg 23%
    14:00 +29°C° 0 mm 3 mps 698 mmHg 23%
    15:00 +30°C° 0 mm 2 mps 698 mmHg 22%
    16:00 +30°C° 0 mm 2 mps 697 mmHg 22%
    17:00 +29°C° 0 mm 2 mps 698 mmHg 24%
    18:00 +27°C° 0 mm 2 mps 698 mmHg 27%
    19:00 +26°C° 0 mm 1 mps 698 mmHg 29%
    20:00 +26°C° 0 mm 2 mps 699 mmHg 30%
    21:00 +25°C° 0 mm 2 mps 699 mmHg 31%
    22:00 +25°C° 0 mm 2 mps 699 mmHg 32%
    23:00 +24°C° 0 mm 2 mps 699 mmHg 34%

    27 February, Thursday

    Time Temperature Precipitation Wind Pressure Humidity
    00:00 +23°C° 0 mm 2 mps 698 mmHg 36%
    01:00 +21°C° 0 mm 2 mps 698 mmHg 37%
    02:00 +21°C° 0 mm 2 mps 698 mmHg 37%
    03:00 +21°C° 0 mm 2 mps 698 mmHg 37%
    04:00 +21°C° 0 mm 2 mps 698 mmHg 38%
    05:00 +22°C° 0 mm 3 mps 698 mmHg 36%
    06:00 +24°C° 0 mm 3 mps 698 mmHg 34%
    07:00 +25°C° 0 mm 3 mps 698 mmHg 32%
    08:00 +26°C° 0 mm 3 mps 698 mmHg 31%
    09:00 +27°C° 0 mm 3 mps 698 mmHg 30%
    10:00 +29°C° 0 mm 2 mps 698 mmHg 29%
    11:00 +30°C° 0 mm 3 mps 698 mmHg 28%
    12:00 +31°C° 0 mm 3 mps 697 mmHg 26%
    13:00 +33°C° 0 mm 3 mps 697 mmHg 24%
    14:00 +34°C° 0 mm 3 mps 697 mmHg 24%
    15:00 +34°C° 0 mm 3 mps 696 mmHg 23%
    16:00 +34°C° 0 mm 3 mps 696 mmHg 23%
    17:00 +33°C° 0 mm 4 mps 696 mmHg 25%
    18:00 +30°C° 0 mm 5 mps 696 mmHg 27%
    19:00 +29°C° 0 mm 5 mps 697 mmHg 29%
    20:00 +28°C° 0.1 mm 5 mps 697 mmHg 33%
    21:00 +27°C° 0.1 mm 4 mps 697 mmHg 36%
    22:00 +26°C° 0.1 mm 4 mps 697 mmHg 39%
    23:00 +26°C° 0 mm 3 mps 697 mmHg 41%
    Show more